Regional Weather Roundup
Issued by NWS

Home | Current Version | Previous Version | Graphics & Text | Print | Product List | Glossary On
Versions: 1 2 3 4 5 6 7 8 9 10 11 12 13 14 15 16 17 18 19 20 21 22 23 24 25 26 27 28 29 30 31 32 33 34 35 36 37 38 39 40 41 42 43 44 45 46 47 48 49 50
000
ASUS44 KMEG 060600
RWRTN
TENNESSEE HOURLY STATE WEATHER ROUNDUP
NATIONAL WEATHER SERVICE MEMPHIS TN
100 AM CDT FRI MAY 06 2016

TNZ002-004-019-021-049-052-054-088>092-060700-
WEST TENNESSEE

CITY           SKY/WX    TMP DP  RH WIND       PRES   REMARKS
MEMPHIS INTL   PTCLDY    57  43  59 NE6       30.04R
NWS MEMPHIS      N/A     52 N/A N/A MISG        N/A
JACKSON        PTCLDY    46  43  89 CALM      30.03S
DYERSBURG      PTCLDY    48  45  87 CALM      30.03S
UNION CITY     CLEAR     45  45 100 CALM      30.01F
LEXINGTON      CLEAR     43  43 100 CALM      30.00S
$$

TNZ008-025-027-028-033-062-065-066-060700-
NORTH MIDDLE TENNESSEE

CITY           SKY/WX    TMP DP  RH WIND       PRES   REMARKS
NASHVILLE      CLEAR     49  43  80 CALM      29.98S
CLARKSVILLE    CLEAR     46  42  86 W5        29.99S
COOKEVILLE     PTCLDY    45  43  93 CALM      29.94S
CROSSVILLE     CLEAR     45  41  86 W6        29.93S
$$

TNZ061-075-076-078-094-096-097-060700-
SOUTH MIDDLE TENNESSEE

CITY           SKY/WX    TMP DP  RH WIND       PRES   REMARKS
TULLAHOMA      CLEAR     46  45  93 NW6       29.97S
WINCHESTER     PTCLDY    48  43  81 CALM      29.97S
MCMINNVILLE    CLEAR     45  45 100 CALM      29.96R
COLUMBIA       CLEAR     46  46 100 CALM      29.98R
SHELBYVILLE    CLEAR     46  45  93 N3        29.99R
$$

TNZ017-018-042-046-047-060700-
NORTHEAST TENNESSEE

CITY           SKY/WX    TMP DP  RH WIND       PRES   REMARKS
TRI CITIES     CLOUDY    48  44  86 W7        29.83S
$$

TNZ012-013-036-069-073-074-060700-
CENTRAL EAST TENNESSEE

CITY           SKY/WX    TMP DP  RH WIND       PRES   REMARKS
KNOXVILLE      CLOUDY    49  43  80 SW7       29.91S
OAK RIDGE      PTCLDY    47  41  80 W3        29.92S
GATLINBURG     CLOUDY    48  39  71 W5        29.90S
$$

TNZ083-085-099-060700-
SOUTHEAST TENNESSEE

CITY           SKY/WX    TMP DP  RH WIND       PRES   REMARKS
CHATTANOOGA    MOCLDY    49  42  77 SE3       29.94S
$$

SKY/WX REPORTED AS FAIR MEANS FEW OR NO CLOUDS BELOW
12 THOUSAND FEET.





USA.gov is the U.S. government's official web portal to all federal, state and local government web resources and services.